Regional Weather Roundup
Issued by NWS

Home | Current Version | Previous Version | Text Only | Print | Product List | Glossary On
Versions: 1 2 3 4 5 6 7 8 9 10 11 12 13 14 15 16 17 18 19 20 21 22 23 24 25 26 27 28 29 30 31 32 33 34 35 36 37 38 39 40 41 42 43 44 45 46 47 48 49 50
000
ASCA42 TJSJ 270110
RWRPR
PUERTO RICO/U.S. VIRGIN ISLANDS HOURLY WEATHER ROUNDUP
NATIONAL WEATHER SERVICE SAN JUAN PR
900 PM AST TUE JUL 26 2016

PRZ001-004-270200-
PUERTO RICO

CITY           SKY/WX    TMP DP  RH WIND       PRES   REMARKS
SAN JUAN LMM   PTCLDY    82  79  89 E9        30.00R HX  93
CEIBA          MOCLDY    82  77  83 E9        30.02R HX  91
$$

PRZ006-007-270200-
U.S. VIRGIN ISLANDS

CITY           SKY/WX    TMP DP  RH WIND       PRES   REMARKS
CHRISTIANSTED  PTCLDY    82  79  89 NE7       30.00R HX  93
$$

HOURLY WEATHER ROUNDUP FOR THE NEWS MEDIA

CITY           SKY/WX    TMP DP  RH WIND       PRES   REMARKS
ORLANDO        CLEAR     85  74  69 SE12      30.05R HX  92
NEW YORK       MOCLDY    86  60  41 N13       29.90R
NEWARK         MOCLDY    86  61  42 N13       29.89R
CHICAGO        PTCLDY    82  62  50 E8        30.01R
HARTFORD       CLOUDY    80  65  59 NE3       29.82R
BOSTON         PTCLDY    87  59  38 N13       29.83R
DALLAS         MOCLDY    85  73  67 NE6       29.88R HX  91
PHILADELPHIA   MOCLDY    86  71  60 SW8       29.91S HX  91
LOS ANGELES    MOSUNNY   75  65  70 W15       29.83F
WASHINGTON DC  MOCLDY    84  69  60 S3        29.95R


USA.gov is the U.S. government's official web portal to all federal, state and local government web resources and services.